Ambler Airport


Codes: PAFM/ABL
Name: Ambler Airport
City: Ambler
Country: United States
Elevation: 334 ft.
Wikipedia:

Photos at Ambler Airport


   Photos courtesy of SpottingLog. You can add your own sightings and photos by signing up for a free trial today.



No photos found.

Weather at Ambler Airport


Time (UTC)DescriptionTempratureWindCloud coverageVisibilityPressureHumidity
19-Apr-2024 03:00Overcast Clouds1°C4 mph, E100%181m1022hPa100%
19-Apr-2024 06:00Overcast Clouds1°C4 mph, NE100%161m1022hPa99%
19-Apr-2024 09:00Overcast Clouds-1°C4 mph, NE98%9262m1022hPa97%
19-Apr-2024 12:00Overcast Clouds-2°C4 mph, NE95%10000m1022hPa95%
19-Apr-2024 15:00Overcast Clouds-3°C4 mph, NE98%10000m1022hPa92%
19-Apr-2024 18:00Overcast Clouds-0°C2 mph, NE99%10000m1022hPa90%
19-Apr-2024 21:00Overcast Clouds1°C0 mph, E100%10000m1021hPa100%
20-Apr-2024 00:00Overcast Clouds2°C2 mph, N100%28m1020hPa100%
20-Apr-2024 03:00Overcast Clouds1°C0 mph, N100%86m1019hPa100%
20-Apr-2024 06:00Overcast Clouds-1°C2 mph, NE100%6044m1019hPa97%
20-Apr-2024 09:00Overcast Clouds-2°C0 mph, SE97%7225m1019hPa97%
20-Apr-2024 12:00Overcast Clouds-2°C0 mph, NE97%4281m1019hPa97%
20-Apr-2024 15:00Overcast Clouds-2°C2 mph, N99%8443m1018hPa98%
20-Apr-2024 18:00Overcast Clouds-0°C2 mph, NW99%10000m1017hPa95%
20-Apr-2024 21:00Overcast Clouds1°C2 mph, NW98%10000m1017hPa99%
21-Apr-2024 00:00Overcast Clouds1°C2 mph, NW99%10000m1016hPa97%
21-Apr-2024 03:00Overcast Clouds1°C2 mph, NW99%10000m1015hPa96%
21-Apr-2024 06:00Overcast Clouds-1°C4 mph, NW97%10000m1015hPa92%
21-Apr-2024 09:00Broken Clouds-4°C7 mph, N63%10000m1015hPa89%
21-Apr-2024 12:00Broken Clouds-6°C7 mph, N57%10000m1015hPa89%
21-Apr-2024 15:00Broken Clouds-7°C7 mph, N74%10000m1014hPa87%
21-Apr-2024 18:00Broken Clouds-6°C7 mph, N79%10000m1015hPa79%
21-Apr-2024 21:00Broken Clouds-4°C7 mph, N61%10000m1015hPa74%
22-Apr-2024 00:00Broken Clouds-3°C7 mph, N59%10000m1015hPa74%
22-Apr-2024 03:00Scattered Clouds-3°C7 mph, N50%10000m1015hPa77%
22-Apr-2024 06:00Broken Clouds-5°C7 mph, N61%10000m1016hPa81%
22-Apr-2024 09:00Overcast Clouds-6°C7 mph, N100%10000m1016hPa80%
22-Apr-2024 12:00Overcast Clouds-6°C7 mph, N100%10000m1016hPa82%
22-Apr-2024 15:00Overcast Clouds-6°C4 mph, N100%10000m1017hPa89%
22-Apr-2024 18:00Overcast Clouds-4°C4 mph, N100%1056m1017hPa93%
22-Apr-2024 21:00Light Snow-1°C2 mph, NE100%10000m1017hPa93%
23-Apr-2024 00:00Light Snow1°C2 mph, E100%185m1017hPa98%
23-Apr-2024 03:00Light Snow1°C4 mph, E100%38m1017hPa99%
23-Apr-2024 06:00Light Snow-0°C4 mph, NE100%58m1017hPa99%
23-Apr-2024 09:00Overcast Clouds-1°C4 mph, NE100%2415m1018hPa99%
23-Apr-2024 12:00Overcast Clouds-2°C4 mph, NE100%10000m1018hPa95%
23-Apr-2024 15:00Overcast Clouds-2°C4 mph, NE100%10000m1018hPa94%
23-Apr-2024 18:00Overcast Clouds0°C2 mph, E99%10000m1018hPa91%
23-Apr-2024 21:00Broken Clouds2°C2 mph, E62%10000m1018hPa91%
24-Apr-2024 00:00Broken Clouds3°C2 mph, NE55%4204m1018hPa87%